Previsão horária em Jurasze

Hoje, 22 Junho, Terça-feira

Tempo Temperatura Precipitação Vento Pressão Humidade
00:00 +21°C° 0 mm 2 m/s 745 mmHg 88%
01:00 +21°C° 0 mm 2 m/s 745 mmHg 89%
02:00 +20°C° 0 mm 2 m/s 744 mmHg 90%
03:00 +20°C° 0 mm 2 m/s 745 mmHg 91%
04:00 +20°C° 0 mm 2 m/s 745 mmHg 92%
05:00 +20°C° 0 mm 2 m/s 745 mmHg 92%
06:00 +21°C° 0 mm 3 m/s 745 mmHg 87%
07:00 +23°C° 0 mm 4 m/s 745 mmHg 81%
08:00 +25°C° 0 mm 4 m/s 746 mmHg 75%
09:00 +27°C° 0 mm 4 m/s 746 mmHg 69%
10:00 +28°C° 0 mm 5 m/s 746 mmHg 64%
11:00 +29°C° 0 mm 5 m/s 746 mmHg 58%
12:00 +30°C° 0 mm 5 m/s 746 mmHg 55%
13:00 +30°C° 0 mm 5 m/s 746 mmHg 53%
14:00 +32°C° 0 mm 5 m/s 746 mmHg 50%
15:00 +32°C° 0 mm 4 m/s 746 mmHg 52%
16:00 +32°C° 0 mm 4 m/s 746 mmHg 55%
17:00 +32°C° 0 mm 4 m/s 746 mmHg 57%
18:00 +29°C° 0 mm 3 m/s 746 mmHg 63%
19:00 +28°C° 0 mm 3 m/s 746 mmHg 68%
20:00 +27°C° 0 mm 3 m/s 746 mmHg 74%
21:00 +26°C° 0 mm 2 m/s 746 mmHg 76%
22:00 +25°C° 0 mm 2 m/s 747 mmHg 78%
23:00 +24°C° 0 mm 2 m/s 747 mmHg 80%

Amanhã, 23 Junho, Quarta-feira

Tempo Temperatura Precipitação Vento Pressão Humidade
00:00 +23°C° 0 mm 2 m/s 747 mmHg 82%
01:00 +22°C° 0 mm 1 m/s 747 mmHg 85%
02:00 +22°C° 0 mm 1 m/s 747 mmHg 88%
03:00 +22°C° 0 mm 1 m/s 747 mmHg 88%
04:00 +22°C° 0 mm 1 m/s 747 mmHg 88%
05:00 +22°C° 0 mm 1 m/s 747 mmHg 88%
06:00 +23°C° 0 mm 1 m/s 747 mmHg 83%
07:00 +25°C° 0 mm 1 m/s 748 mmHg 79%
08:00 +26°C° 0 mm 2 m/s 748 mmHg 74%
09:00 +27°C° 0.4 mm 2 m/s 748 mmHg 71%
10:00 +28°C° 0.4 mm 2 m/s 749 mmHg 69%
11:00 +29°C° 0.4 mm 2 m/s 749 mmHg 67%
12:00 +29°C° 0.5 mm 2 m/s 749 mmHg 66%
13:00 +29°C° 0.5 mm 2 m/s 749 mmHg 66%
14:00 +29°C° 0.5 mm 2 m/s 749 mmHg 66%
15:00 +28°C° 0.4 mm 2 m/s 749 mmHg 70%
16:00 +28°C° 0.4 mm 2 m/s 749 mmHg 73%
17:00 +27°C° 0.4 mm 2 m/s 749 mmHg 77%
18:00 +26°C° 0.2 mm 2 m/s 749 mmHg 82%
19:00 +25°C° 0.2 mm 3 m/s 749 mmHg 87%
20:00 +24°C° 0.2 mm 3 m/s 749 mmHg 91%
21:00 +22°C° 1.4 mm 3 m/s 749 mmHg 94%
22:00 +21°C° 1.4 mm 3 m/s 750 mmHg 96%
23:00 +20°C° 1.4 mm 2 m/s 750 mmHg 98%

Depois de amanhã, 24 Junho, Quinta-feira

Tempo Temperatura Precipitação Vento Pressão Humidade
00:00 +20°C° 0.4 mm 2 m/s 750 mmHg 98%
01:00 +20°C° 0.4 mm 2 m/s 750 mmHg 97%
02:00 +19°C° 0.4 mm 2 m/s 749 mmHg 97%
03:00 +19°C° 0.5 mm 2 m/s 749 mmHg 97%
04:00 +19°C° 0.5 mm 2 m/s 749 mmHg 97%
05:00 +19°C° 0.5 mm 2 m/s 749 mmHg 97%
06:00 +20°C° 0.3 mm 2 m/s 749 mmHg 94%
07:00 +20°C° 0.3 mm 2 m/s 749 mmHg 92%
08:00 +21°C° 0.3 mm 2 m/s 750 mmHg 90%
09:00 +24°C° 0.1 mm 2 m/s 750 mmHg 84%
10:00 +26°C° 0.1 mm 1 m/s 749 mmHg 77%
11:00 +28°C° 0.1 mm 1 m/s 749 mmHg 71%
12:00 +29°C° 0.3 mm 1 m/s 749 mmHg 67%
13:00 +30°C° 0.3 mm 1 m/s 749 mmHg 63%
14:00 +30°C° 0.3 mm 1 m/s 749 mmHg 59%
15:00 +30°C° 0.8 mm 1 m/s 749 mmHg 61%
16:00 +30°C° 0.8 mm 2 m/s 748 mmHg 63%
17:00 +29°C° 0.8 mm 2 m/s 748 mmHg 65%
18:00 +27°C° 1.3 mm 2 m/s 748 mmHg 71%
19:00 +24°C° 1.3 mm 2 m/s 748 mmHg 78%
20:00 +22°C° 1.3 mm 1 m/s 748 mmHg 84%
21:00 +21°C° 0 mm 1 m/s 748 mmHg 85%
22:00 +21°C° 0 mm 1 m/s 748 mmHg 86%
23:00 +21°C° 0 mm 1 m/s 748 mmHg 87%

25 Junho, Sexta-feira

Tempo Temperatura Precipitação Vento Pressão Humidade
00:00 +20°C° 0 mm 1 m/s 748 mmHg 89%
01:00 +19°C° 0 mm 2 m/s 748 mmHg 92%
02:00 +19°C° 0 mm 2 m/s 748 mmHg 95%
03:00 +19°C° 0 mm 2 m/s 748 mmHg 95%
04:00 +19°C° 0 mm 2 m/s 747 mmHg 95%
05:00 +19°C° 0 mm 2 m/s 747 mmHg 95%
06:00 +20°C° 0 mm 2 m/s 747 mmHg 88%
07:00 +23°C° 0 mm 2 m/s 747 mmHg 82%
08:00 +24°C° 0 mm 2 m/s 747 mmHg 75%
09:00 +26°C° 0 mm 2 m/s 747 mmHg 73%
10:00 +27°C° 0 mm 3 m/s 746 mmHg 71%
11:00 +28°C° 0 mm 3 m/s 746 mmHg 69%
12:00 +29°C° 1.1 mm 3 m/s 746 mmHg 68%
13:00 +30°C° 1.1 mm 3 m/s 746 mmHg 67%
14:00 +32°C° 1.1 mm 4 m/s 745 mmHg 67%
15:00 +29°C° 3.7 mm 4 m/s 745 mmHg 73%
16:00 +27°C° 3.7 mm 4 m/s 745 mmHg 80%
17:00 +25°C° 3.7 mm 3 m/s 744 mmHg 86%
18:00 +24°C° 2.6 mm 3 m/s 745 mmHg 88%
19:00 +21°C° 2.6 mm 2 m/s 745 mmHg 90%
20:00 +20°C° 2.6 mm 2 m/s 745 mmHg 91%
21:00 +19°C° 0 mm 2 m/s 746 mmHg 93%
22:00 +19°C° 0 mm 3 m/s 746 mmHg 95%
23:00 +18°C° 0 mm 4 m/s 746 mmHg 96%

26 Junho, Sábado

Tempo Temperatura Precipitação Vento Pressão Humidade
00:00 +18°C° 0 mm 4 m/s 746 mmHg 96%
01:00 +18°C° 0 mm 3 m/s 747 mmHg 96%
02:00 +17°C° 0 mm 3 m/s 747 mmHg 96%
03:00 +17°C° 0 mm 3 m/s 747 mmHg 96%
04:00 +16°C° 0 mm 3 m/s 747 mmHg 95%
05:00 +16°C° 0 mm 3 m/s 747 mmHg 95%
06:00 +17°C° 0 mm 3 m/s 747 mmHg 91%
07:00 +18°C° 0 mm 4 m/s 748 mmHg 86%
08:00 +19°C° 0 mm 4 m/s 748 mmHg 82%
09:00 +20°C° 0 mm 4 m/s 748 mmHg 76%
10:00 +21°C° 0 mm 4 m/s 748 mmHg 70%
11:00 +23°C° 0 mm 4 m/s 749 mmHg 63%
12:00 +23°C° 0 mm 4 m/s 749 mmHg 61%
13:00 +25°C° 0 mm 4 m/s 748 mmHg 59%
14:00 +26°C° 0 mm 4 m/s 748 mmHg 57%
15:00 +25°C° 0 mm 4 m/s 749 mmHg 60%
16:00 +25°C° 0 mm 4 m/s 749 mmHg 63%
17:00 +23°C° 0 mm 4 m/s 749 mmHg 66%
18:00 +22°C° 0 mm 3 m/s 749 mmHg 70%
19:00 +21°C° 0 mm 3 m/s 749 mmHg 74%
20:00 +20°C° 0 mm 2 m/s 748 mmHg 78%
21:00 +19°C° 0 mm 2 m/s 749 mmHg 81%
22:00 +18°C° 0 mm 2 m/s 749 mmHg 84%
23:00 +17°C° 0 mm 2 m/s 749 mmHg 87%

27 Junho, Domingo

Tempo Temperatura Precipitação Vento Pressão Humidade
00:00 +17°C° 0 mm 2 m/s 749 mmHg 89%
01:00 +16°C° 0 mm 1 m/s 749 mmHg 90%
02:00 +16°C° 0 mm 1 m/s 749 mmHg 92%
03:00 +16°C° 0 mm 1 m/s 749 mmHg 91%
04:00 +16°C° 0 mm 1 m/s 749 mmHg 91%
05:00 +16°C° 0 mm 1 m/s 749 mmHg 90%
06:00 +18°C° 0 mm 1 m/s 749 mmHg 86%
07:00 +20°C° 0 mm 1 m/s 749 mmHg 81%
08:00 +21°C° 0 mm 1 m/s 750 mmHg 76%
09:00 +22°C° 0 mm 1 m/s 750 mmHg 73%
10:00 +23°C° 0 mm 1 m/s 750 mmHg 69%
11:00 +24°C° 0 mm 1 m/s 750 mmHg 65%
12:00 +24°C° 0.1 mm 1 m/s 750 mmHg 66%
13:00 +24°C° 0.1 mm 1 m/s 750 mmHg 68%
14:00 +24°C° 0.1 mm 2 m/s 750 mmHg 69%
15:00 +23°C° 0.4 mm 1 m/s 750 mmHg 75%
16:00 +22°C° 0.4 mm 1 m/s 750 mmHg 82%
17:00 +21°C° 0.4 mm 1 m/s 750 mmHg 88%
18:00 +21°C° 0.1 mm 1 m/s 749 mmHg 89%
19:00 +21°C° 0.1 mm 1 m/s 749 mmHg 89%
20:00 +20°C° 0.1 mm 1 m/s 749 mmHg 90%
21:00 +20°C° 0.2 mm 1 m/s 749 mmHg 91%
22:00 +20°C° 0.2 mm 1 m/s 749 mmHg 92%
23:00 +19°C° 0.2 mm 1 m/s 749 mmHg 93%
Mostrar mais

Necessitamos do seu Consentimento

A Meteoprog e os seus Fornecedores de Serviços podem armazenar e aceder a dados pessoais como cookies, identificadores do dispositivo ou outras tecnologias semelhantes existentes no seu dispositivo e processar estes dados para personalizar conteúdos e anúncios, assim como funcionalidades nas redes sociais e análise de tráfego.

  • Armazenar e/ou aceder a informações no seu dispositivo

    Os cookies, identificadores do dispositivo ou outras informações podem ser armazenados ou acedidos no seu dispositivo, para os fins acima indicados.

  • Anúncios e conteúdos personalizados, medição de anúncios e conteúdos, dados sobre o público-alvo e desenvolvimento de produtos

    Os anúncios e os conteúdos podem ser personalizados com base num perfil. Podem ser adicionados dados adicionais para uma maior personalização dos anúncios e dos conteúdos. A eficácia dos anúncios e dos conteúdos pode ser medida. Podem ser obtidas informações sobre o público que visualizou os anúncios e os conteúdos. Estes dados podem ser usados para desenvolver ou melhorar sistemas, softwares ou a experiência do utilizador.

Ao clicar em "Eu concordo”, permitirá o uso de cookies, identificadores do dispositivo e web beacons mencionados ou outras tecnologias semelhantes. As configurações do navegador do seu dispositivo podem ser alteradas.

Para certos fins, podem ser invocados interesses legítimos ao invés de consentimento. Pode ler mais informação sobre este assunto na nossa Política de Privacidade e Cookies.